Weather History for NZCH - March, 2014

Change the Weather History Date:

Sunday, March 2, 2014

  Actual Average Record
Temperature  
Mean Temperature 55 °F -  
Max Temperature 71 °F 67 °F 86 °F (2015)
Min Temperature 39 °F 50 °F 39 °F (2012)
Degree Days  
Heating Degree Days 10    
Growing Degree Days 5 (Base 50)    
Moisture  
Dew Point 45 °F    
Average Humidity 65    
Maximum Humidity 100    
Minimum Humidity 35    
Precipitation  
Precipitation 0.00 in - - ()
Sea Level Pressure  
Sea Level Pressure 29.70 in    
Wind  
Wind Speed 6 mph ()    
Max Wind Speed 18 mph    
Max Gust Speed -    
Visibility 6.2 miles    
Events      
Averages and records for this station are not official NWS values.
T = Trace of Precipitation, MM = Missing Value Source: Averaged Metar Reports

Daily Weather History Graph

Daily Weather History Graph

Search for Another Location

Airport or City:

Trip Planner

Search our weather history database for the weather conditions in past years. The results will help you decide how hot, cold, wet, or windy it might be!

Date:

Astronomy

Mar. 02, 2014 Rise Set
Actual Time 7:09 AM NZDT 8:14 PM NZDT
Civil Twilight 6:39 AM NZDT 8:43 PM NZDT
Nautical Twilight 6:04 AM NZDT 9:18 PM NZDT
Astronomical Twilight 5:27 AM NZDT 9:55 PM NZDT
Moon 7:53 AM NZDT (3/2) 8:22 PM NZDT (3/2)
Length of Visible Light 14h 03m
Length of Day
13h 05m
New Moon, 1% of the Moon is Illuminated
Mar 2
New Moon
Mar 9
First Quarter
Mar 17
Full
Mar 24
Last Quarter
Mar 31
New

Hourly Weather History & Observations

Time (NZDT) Temp. Windchill Dew Point Humidity Pressure Visibility Wind Dir Wind Speed Gust Speed Precip Events Conditions
12:00 AM 48.2 °F - 42.8 °F 82% 29.89 in 6.2 mi NW 3.5 mph - N/A   Unknown
12:30 AM 46.4 °F - 42.8 °F 87% 29.89 in 6.2 mi NE 1.2 mph - N/A   Unknown
1:00 AM 46.4 °F 45.2 °F 42.8 °F 87% 29.86 in 6.2 mi NE 3.5 mph - N/A   Mostly Cloudy
1:30 AM 48.2 °F - 42.8 °F 82% 29.86 in 6.2 mi ENE 2.3 mph - N/A   Overcast
2:00 AM 48.2 °F - 44.6 °F 87% 29.86 in 6.2 mi NNE 2.3 mph - N/A   Overcast
2:30 AM 48.2 °F - 42.8 °F 82% 29.86 in 6.2 mi NNE 3.5 mph - N/A   Mostly Cloudy
3:00 AM 48.2 °F - 42.8 °F 82% 29.83 in 6.2 mi NE 1.2 mph - N/A   Mostly Cloudy
3:30 AM 48.2 °F - 44.6 °F 87% 29.83 in 6.2 mi ENE 1.2 mph - N/A   Overcast
4:00 AM 46.4 °F 45.2 °F 42.8 °F 87% 29.83 in 6.2 mi East 3.5 mph - N/A   Overcast
4:30 AM 46.4 °F - 41.0 °F 81% 29.80 in 6.2 mi NE 1.2 mph - N/A   Unknown
5:00 AM 46.4 °F 44.3 °F 41.0 °F 81% 29.80 in 6.2 mi East 4.6 mph - N/A   Unknown
5:30 AM 42.8 °F 41.1 °F 41.0 °F 93% 29.80 in 6.2 mi NNW 3.5 mph - N/A   Unknown
6:00 AM 42.8 °F - 41.0 °F 93% 29.80 in 6.2 mi NW 2.3 mph - N/A   Unknown
6:30 AM 41.0 °F - 39.2 °F 93% 29.77 in 6.2 mi NW 1.2 mph - N/A   Unknown
7:00 AM 39.2 °F - 37.4 °F 93% 29.77 in 6.2 mi NW 2.3 mph - N/A   Unknown
7:30 AM 39.2 °F 37.0 °F 39.2 °F 100% 29.77 in 6.2 mi NNW 3.5 mph - N/A   Unknown
8:00 AM 41.0 °F - 41.0 °F 100% 29.77 in 6.2 mi NNW 1.2 mph - N/A   Unknown
8:30 AM 48.2 °F - 44.6 °F 87% 29.77 in 6.2 mi NW 2.3 mph - N/A   Unknown
9:00 AM 53.6 °F - 46.4 °F 77% 29.77 in 6.2 mi North 2.3 mph - N/A   Unknown
9:30 AM 55.4 °F - 46.4 °F 72% 29.77 in 6.2 mi North 3.5 mph - N/A   Unknown
10:00 AM 57.2 °F - 44.6 °F 63% 29.74 in 6.2 mi NE 4.6 mph - N/A   Unknown
10:30 AM 59.0 °F - 42.8 °F 55% 29.74 in 6.2 mi ENE 4.6 mph - N/A   Unknown
11:00 AM 60.8 °F - 44.6 °F 55% 29.77 in 6.2 mi ENE 3.5 mph - N/A   Unknown
11:30 AM 62.6 °F - 46.4 °F 55% 29.74 in 6.2 mi East 5.8 mph - N/A   Unknown
12:00 PM 62.6 °F - 44.6 °F 52% 29.74 in 6.2 mi ENE 5.8 mph - N/A   Unknown
12:30 PM 64.4 °F - 44.6 °F 49% 29.74 in 6.2 mi ENE 8.1 mph - N/A   Unknown
1:00 PM 66.2 °F - 48.2 °F 52% 29.71 in 6.2 mi ENE 10.4 mph - N/A   Unknown
1:30 PM 66.2 °F - 46.4 °F 49% 29.68 in 6.2 mi ENE 12.7 mph - N/A   Unknown
2:00 PM 68.0 °F - 44.6 °F 43% 29.68 in 6.2 mi ENE 16.1 mph - N/A   Unknown
2:30 PM 68.0 °F - 46.4 °F 46% 29.65 in 6.2 mi East 16.1 mph - N/A   Unknown
3:00 PM 68.0 °F - 46.4 °F 46% 29.62 in 6.2 mi ENE 18.4 mph - N/A   Unknown
3:30 PM 69.8 °F - 46.4 °F 43% 29.62 in 6.2 mi ENE 17.3 mph - N/A   Unknown
4:00 PM 68.0 °F - 46.4 °F 46% 29.59 in 6.2 mi ENE 18.4 mph - N/A   Unknown
4:30 PM 64.4 °F - 48.2 °F 56% 29.59 in 6.2 mi NE 12.7 mph - N/A   Unknown
5:00 PM 66.2 °F - 50.0 °F 56% 29.56 in 6.2 mi ENE 16.1 mph - N/A   Unknown
5:30 PM 68.0 °F - 51.8 °F 56% 29.56 in 6.2 mi East 11.5 mph - N/A   Unknown
6:00 PM 68.0 °F - 51.8 °F 56% 29.56 in 6.2 mi East 6.9 mph - N/A   Unknown
6:30 PM 71.6 °F - 42.8 °F 35% 29.53 in 6.2 mi NW 17.3 mph - N/A   Unknown
7:00 PM 71.6 °F - 44.6 °F 38% 29.53 in 6.2 mi NW 18.4 mph - N/A   Unknown
7:30 PM 68.0 °F - 44.6 °F 43% 29.53 in 6.2 mi NW 18.4 mph - N/A   Unknown
8:00 PM 68.0 °F - 44.6 °F 43% 29.53 in 6.2 mi NW 17.3 mph - N/A   Unknown
8:30 PM 66.2 °F - 46.4 °F 49% 29.53 in 6.2 mi NNW 15.0 mph - N/A   Unknown
9:00 PM 64.4 °F - 46.4 °F 52% 29.53 in 6.2 mi NNW 11.5 mph - N/A   Unknown
9:30 PM 64.4 °F - 46.4 °F 52% 29.53 in 6.2 mi North 11.5 mph - N/A   Unknown
10:00 PM 64.4 °F - 46.4 °F 52% 29.53 in 6.2 mi NNW 16.1 mph - N/A   Mostly Cloudy
10:30 PM 62.6 °F - 46.4 °F 55% 29.53 in 6.2 mi NNW 11.5 mph - N/A   Mostly Cloudy
11:00 PM 62.6 °F - 46.4 °F 55% 29.53 in 6.2 mi North 8.1 mph - N/A   Unknown
11:30 PM 62.6 °F - 44.6 °F 52% 29.53 in 6.2 mi NNE 8.1 mph - N/A   Unknown